Home > Time Zones > World Clock > Weather > U.S.A. > Nome > Past weeks

Flag for U.S.A. Weather past 2 weeks in Nome, Alaska, U.S.A.

Now
10 °F

Passing clouds.


Feels Like: -4 °F
Forecast: -4 / 1 °F
Wind: 10 mph from North

Location: Nome Airport

Current Time: Dec 20, 2014 at 6:26:58 PM

Latest Report: Dec 20, 2014 at 5:53 PM


Visibility: 10 mi

Pressure: 29.31 "Hg

Humidity: 69%

Dew point: 2 °F

Location of NomeLocation

Historic Weather in Nome — Graph

°F

Nome temperature yesterday

Maximum temperature yesterday: 26 °F (at 12:53 AM)
Minimum temperature yesterday: 6 °F (at 11:53 PM)
Average temperature yesterday: 18 °F

Past Weeks' High & Low Weather Summary

 TemperatureHumidityPressure
High30 °F (Dec 18, 7:53 PM)100% (Dec 17, 2:53 AM)29.77 "Hg (Dec 17, 2:53 AM)
Low-6 °F (Dec 11, 11:53 PM)47% (Dec 18, 7:53 PM)29.02 "Hg (Dec 16, 6:53 AM)
Average17 °F72%29.41 "Hg
* Reported Dec 5 4:53 PM — Dec 20 4:53 PM, Nome, Weather by CustomWeather, © 2014

Note: Actual official high and low records may vary slightly from our data, if they occured in-between our weather recording intervals... More about our weather records

Advertising

Nome weather history for previous 24 hours

 ConditionsComfort  
Time TempWeatherWind HumidityBarometerVisibility
4:53 PM
Dec 20
5 °FPassing clouds.5 mph87%29.30 "Hg10 mi
3:53 PM6 °FPartly sunny.7 mph83%29.30 "Hg10 mi
2:53 PM6 °FPartly sunny.7 mph83%29.29 "Hg10 mi
1:53 PM7 °FPartly sunny.7 mph79%29.29 "Hg10 mi
12:53 PM11 °FPartly sunny.No wind73%29.31 "Hg10 mi
11:53 AM4 °FPassing clouds.3 mph88%29.30 "Hg10 mi
10:53 AM8 °FPassing clouds.No wind79%29.30 "Hg10 mi
9:53 AM12 °FPassing clouds.12 mph73%29.32 "Hg10 mi
8:53 AM6 °FPassing clouds.3 mph79%29.31 "Hg10 mi
7:53 AM10 °FPassing clouds.No wind76%29.32 "Hg10 mi
6:53 AM10 °FPassing clouds.6 mph76%29.31 "Hg10 mi
5:53 AM12 °FPassing clouds.6 mph77%29.32 "Hg10 mi
4:53 AM11 °FPassing clouds.7 mph77%29.32 "Hg10 mi
3:53 AM6 °FPassing clouds.6 mph79%29.31 "Hg10 mi
2:53 AM8 °FPassing clouds.5 mph76%29.33 "Hg10 mi
1:53 AM6 °FPassing clouds.No wind79%29.32 "Hg10 mi
12:53 AM6 °FPassing clouds.No wind79%29.31 "Hg10 mi
11:53 PM
Dec 19
6 °FPassing clouds.No wind83%29.33 "Hg10 mi
10:53 PM7 °FPassing clouds.No wind79%29.31 "Hg10 mi
9:53 PM8 °FPassing clouds.3 mph79%29.32 "Hg10 mi
8:53 PM8 °FPassing clouds.3 mph79%29.32 "Hg10 mi
7:53 PM15 °FPassing clouds.No wind64%29.31 "Hg10 mi
6:53 PM13 °FPassing clouds.No wind70%29.31 "Hg10 mi
Weather by CustomWeather, © 2014

See weather overviewHow to use our weather pages